Location: Newark
(40.3500°N, 15.2333°E)
Time: 05:55:35
(UTC+00:00)

Explorer 11/Cluster Stage 4 - All Passes

Search period start: 24 January 2020 00:00
Search period end: 03 February 2020 00:00
Orbit: 467 x 1259 km, 28.8° (Epoch: 23 January)

Date Brightness Start Highest point End Pass type
(mag) Time Alt. Az. Time Alt. Az. Time Alt. Az.
24 Jan - 12:04:28 10° SSW 12:09:40 18° SSE 12:14:40 10° ESE daylight
24 Jan - 13:51:19 10° SW 13:58:04 30° S 14:04:08 10° ESE daylight
24 Jan - 15:40:00 10° WSW 15:46:29 31° S 15:52:03 10° SE daylight
24 Jan - 17:29:52 10° WSW 17:34:27 19° SSW 17:38:28 10° SSE visible
25 Jan - 11:52:59 10° SSW 11:58:40 21° SSE 12:04:11 10° ESE daylight
25 Jan - 13:40:07 10° SW 13:47:07 32° S 13:53:27 10° ESE daylight
25 Jan - 15:28:55 10° WSW 15:35:34 31° S 15:41:20 10° SE daylight
25 Jan - 17:18:58 10° WSW 17:23:33 19° SSW 17:27:36 10° SSE visible
26 Jan - 11:41:37 10° SSW 11:47:39 23° SSE 11:53:34 10° ESE daylight
26 Jan - 13:28:59 10° SW 13:36:08 33° S 13:42:44 10° ESE daylight
26 Jan - 15:17:53 10° WSW 15:24:38 31° S 15:30:34 10° SE daylight
26 Jan - 17:08:07 10° WSW 17:12:37 18° SSW 17:16:39 10° SSE visible
27 Jan - 09:47:45 10° SSE 09:48:33 10° SSE 09:49:22 10° SE daylight
27 Jan - 11:30:21 10° SSW 11:36:37 25° SSE 11:42:53 10° ESE daylight
27 Jan - 13:17:53 10° WSW 13:25:09 35° S 13:31:57 10° ESE daylight
27 Jan - 15:06:51 10° WSW 15:13:40 31° SSW 15:19:45 10° SE daylight
27 Jan - 16:57:19 10° WSW 17:01:40 17° SSW 17:05:37 10° S visible
28 Jan - 09:34:55 10° SSE 09:37:31 12° SSE 09:40:10 10° SE daylight
28 Jan - 11:19:10 10° SW 11:25:36 27° SSE 11:32:07 10° ESE daylight
28 Jan - 13:06:51 10° WSW 13:14:09 36° S 13:21:08 10° ESE daylight
28 Jan - 14:55:52 10° WSW 15:02:42 30° SSW 15:08:53 10° SE daylight
28 Jan - 16:46:35 10° WSW 16:50:41 15° SSW 16:54:29 10° S visible
29 Jan - 09:23:06 10° S 09:26:29 13° SSE 09:30:00 10° ESE daylight
29 Jan - 11:08:04 10° SW 11:14:35 28° SSE 11:21:18 10° ESE daylight
29 Jan - 12:55:51 10° WSW 13:03:09 36° S 13:10:16 10° ESE daylight
29 Jan - 14:44:54 10° WSW 14:51:42 29° SSW 14:57:58 10° SE daylight
29 Jan - 16:35:57 10° WSW 16:39:42 14° SSW 16:43:12 10° S visible
30 Jan - 09:11:35 10° S 09:15:27 15° SSE 09:19:33 10° ESE daylight
30 Jan - 10:57:01 10° SW 11:03:33 30° SSE 11:10:25 10° ESE daylight
30 Jan - 12:44:53 10° WSW 12:52:09 36° S 12:59:21 10° ESE daylight
30 Jan - 14:33:59 10° WSW 14:40:41 28° SSW 14:46:59 10° SE daylight
30 Jan - 16:25:28 10° SW 16:28:41 13° SSW 16:31:44 10° S daylight
31 Jan - 09:00:15 10° S 09:04:26 16° SSE 09:08:56 10° ESE daylight
31 Jan - 10:46:02 10° SW 10:52:33 31° SSE 10:59:30 10° ESE daylight
31 Jan - 12:33:57 10° WSW 12:41:08 36° S 12:48:24 10° ESE daylight
31 Jan - 14:23:07 10° WSW 14:29:40 27° SSW 14:35:57 10° SE daylight
31 Jan - 16:15:17 10° SW 16:17:40 11° SSW 16:19:58 10° SSW daylight
01 Feb - 08:49:03 10° SSW 08:53:26 18° SSE 08:58:12 10° ESE daylight
01 Feb - 10:35:06 10° SW 10:41:33 32° SSE 10:48:33 10° ESE daylight
01 Feb - 12:23:05 10° WSW 12:30:08 35° S 12:37:24 10° ESE daylight
01 Feb - 14:12:17 10° WSW 14:18:39 25° SSW 14:24:50 10° SSE daylight
01 Feb - 16:06:24 10° SW 16:06:38 10° SSW 16:06:51 10° SSW daylight
02 Feb - 08:37:58 10° SSW 08:42:27 19° SSE 08:47:24 10° ESE daylight
02 Feb - 10:24:14 10° SW 10:30:34 32° S 10:37:34 10° ESE daylight
02 Feb - 12:12:14 10° WSW 12:19:08 34° S 12:26:21 10° SE daylight
02 Feb - 14:01:32 10° WSW 14:07:37 23° SSW 14:13:38 10° SSE daylight
